This is the latest recevied weather packets stored in our database for station/object MeshWX-1. If no packets are shown the sender has not sent any weather packets the latest 10 day(s).
| Time | Temp. | Humidity | Pressure | Rain* | Wind** | Luminosity | Snow |
|---|---|---|---|---|---|---|---|
| 1788149946 | 17.22° C | 81% | 999.5 hPa | - | - | - | - |
| 1788149465 | 17.22° C | 81% | 999.5 hPa | - | - | - | - |
| 1788149345 | 17.22° C | 81% | 999.5 hPa | - | - | - | - |
| 1788147785 | 17.78° C | 78% | 999.3 hPa | - | - | - | - |
| 1788147185 | 17.78° C | 78% | 999.3 hPa | - | - | - | - |
| 1788145625 | 17.78° C | 76% | 999.2 hPa | - | - | - | - |
| 1788145143 | 17.78° C | 76% | 999.2 hPa | - | - | - | - |
| 1788145097 | 17.78° C | 76% | 999.2 hPa | - | - | - | - |
| 1788143525 | 18.33° C | 71% | 999.2 hPa | - | - | - | - |
| 1788143045 | 18.33° C | 71% | 999.2 hPa | - | - | - | - |
| 1788141485 | 18.89° C | 71% | 998.9 hPa | - | - | - | - |
| 1788141037 | 18.89° C | 71% | 998.9 hPa | - | - | - | - |
| 1788139385 | 19.44° C | 70% | 998.9 hPa | - | - | - | - |
| 1788138958 | 19.44° C | 70% | 998.9 hPa | - | - | - | - |
| 1788137284 | 20° C | 67% | 998.9 hPa | - | - | - | - |
| 1788136888 | 20° C | 67% | 998.9 hPa | - | - | - | - |
| 1788135184 | 21.11° C | 62% | 998.8 hPa | - | - | - | - |
| 1788134818 | 21.11° C | 62% | 998.8 hPa | - | - | - | - |
| 1788133084 | 21.11° C | 59% | 998.8 hPa | - | - | - | - |
| 1788132752 | 21.11° C | 59% | 998.8 hPa | - | - | - | - |
| 1788132735 | 21.11° C | 59% | 998.8 hPa | - | - | - | - |
| 1788130924 | 21.67° C | 58% | 999 hPa | - | - | - | - |
| 1788130629 | 21.67° C | 58% | 999 hPa | - | - | - | - |
| 1788128824 | 22.22° C | 58% | 998.9 hPa | - | - | - | - |
| 1788128540 | 22.78° C | 55% | 998.9 hPa | - | - | - | - |
* Rain since midnight (hover to see other rain measurements)
** Current wind speed in m/s (hover to see current wind gust speed)